Location: Joplin, MO
(37.0842°N, 94.5133°W)
Time: 20:41:29
(UTC+02:00)

Courier 1B Rocket - Pass Details

Date: 07 April 2023
Orbit: 920 x 1202 km, 28.2° (Epoch: 05 June)

Event Time Altitude Azimuth Distance (km) Brightness Sun altitude
Rises 03:56:36 0° 265° (W) 4,048 9.5 -14.6°
Reaches altitude 10° 04:00:01 10° 253° (WSW) 3,051 8.4 -15.3°
Maximum altitude 04:05:55 25° 202° (SSW) 2,066 6.7 -16.4°
Enters shadow 04:10:28 14° 156° (SSE) 2,631 6.8 -17.2°
Drops below altitude 10° 04:11:32 10° 150° (SSE) 2,890 - -17.4°
Sets 04:14:41 0° 137° (SE) 3,793 - -18.0°
